Anniston, AL

5:20 PM CST on November 11, 2019 (GMT -0600)
Anniston Metro

Weather History for KANB - October, 2019

Change the Weather History Date:

Wednesday, October 23, 2019

  Actual Average Record
Temperature  
Mean Temperature 55 °F 61 °F  
Max Temperature 71 °F 73 °F 86 °F (1953)
Min Temperature 38 °F 49 °F 25 °F (1904)
Degree Days  
Heating Degree Days 10    
Month to date heating degree days 59  
Since 1 July heating degree days 59  
Growing Degree Days 4 (Base 50)    
Moisture  
Dew Point 39 °F    
Average Humidity 62    
Maximum Humidity 100    
Minimum Humidity 23    
Precipitation  
Precipitation 0.00 in 0.10 in 1.59 in (1972)
Month to date precipitation 2.15 2.26  
Year to date precipitation 41.88 40.11  
Sea Level Pressure  
Sea Level Pressure 30.19 in    
Wind  
Wind Speed 2 mph (ENE)    
Max Wind Speed 9 mph    
Max Gust Speed 17 mph    
Visibility 8 miles    
Events Fog    
T = Trace of Precipitation, MM = Missing Value Source: NWS Daily Summary

Daily Weather History Graph

Daily Weather History Graph

Search for Another Location

Airport or City:

Astronomy

Oct. 23, 2019 Rise Set
Actual Time 6:54 AM CDT 6:00 PM CDT
Civil Twilight 6:29 AM CDT 6:25 PM CDT
Nautical Twilight 6:00 AM CDT 6:54 PM CDT
Astronomical Twilight 5:31 AM CDT 7:23 PM CDT
Moon 1:33 AM CDT (10/23) 3:31 PM CDT (10/23)
Length of Visible Light 11h 56m
Length of Day
11h 06m
Waning Crescent, 26% of the Moon is Illuminated
Oct 23
Waning Crescent
Oct 27
New
Nov 4
First Quarter
Nov 12
Full
Nov 19
Last Quarter

Hourly Weather History & Observations

Time (CDT) Temp. Windchill Dew Point Humidity Pressure Visibility Wind Dir Wind Speed Gust Speed Precip Events Conditions
12:53 AM 44.1 °F - 39.9 °F 85% 30.14 in 10.0 mi Calm Calm - N/A   Clear
1:53 AM 41.0 °F 38.0 °F 39.0 °F 93% 30.16 in 10.0 mi WSW 4.6 mph - N/A   Clear
2:53 AM 43.0 °F - 39.9 °F 89% 30.16 in 10.0 mi Calm Calm - N/A   Clear
3:53 AM 41.0 °F - 37.9 °F 89% 30.16 in 10.0 mi Calm Calm - N/A   Clear
4:53 AM 39.9 °F - 37.0 °F 89% 30.18 in 10.0 mi Calm Calm - N/A   Clear
5:53 AM 39.0 °F - 37.0 °F 93% 30.19 in 10.0 mi Calm Calm - N/A   Clear
6:39 AM 39.9 °F - 37.9 °F 93% 30.18 in 1.8 mi Calm Calm - N/A   Partly Cloudy
6:42 AM 39.9 °F - 37.9 °F 93% 30.18 in 0.8 mi Calm Calm - N/A   Mist
6:49 AM 39.2 °F - 37.4 °F 93% 30.18 in 0.5 mi Calm Calm - N/A Fog Fog
6:53 AM 37.9 °F - 37.0 °F 97% 30.20 in 1.2 mi Calm Calm - N/A   Scattered Clouds
6:58 AM 39.0 °F - 37.9 °F 96% 30.18 in 0.8 mi Calm Calm - N/A   Mist
7:07 AM 39.0 °F - 37.0 °F 93% 30.18 in 1.2 mi Calm Calm - N/A   Scattered Clouds
7:10 AM 37.9 °F - 37.0 °F 97% 30.18 in 3.0 mi Calm Calm - N/A   Scattered Clouds
7:53 AM 41.0 °F - 39.9 °F 96% 30.21 in 10.0 mi Calm Calm - N/A   Clear
8:53 AM 48.0 °F - 43.0 °F 83% 30.22 in 10.0 mi East 3.5 mph - N/A   Clear
9:53 AM 57.9 °F - 44.1 °F 60% 30.22 in 10.0 mi Calm Calm - N/A   Clear
10:53 AM 63.0 °F - 37.9 °F 40% 30.23 in 10.0 mi Calm Calm - N/A   Clear
11:53 AM 66.0 °F - 37.9 °F 36% 30.21 in 10.0 mi Variable 4.6 mph - N/A   Clear
12:53 PM 66.9 °F - 34.0 °F 30% 30.19 in 10.0 mi Variable 4.6 mph - N/A   Clear
1:53 PM 69.1 °F - 35.1 °F 29% 30.17 in 10.0 mi Calm Calm - N/A   Clear
2:53 PM 69.1 °F - 30.9 °F 24% 30.16 in 10.0 mi Variable 3.5 mph - N/A   Clear
3:53 PM 70.0 °F - 33.1 °F 26% 30.15 in 10.0 mi North 6.9 mph - N/A   Clear
4:53 PM 68.0 °F - 34.0 °F 28% 30.15 in 10.0 mi ENE 5.8 mph - N/A   Clear
5:53 PM 61.0 °F - 41.0 °F 48% 30.17 in 10.0 mi Calm Calm - N/A   Clear
6:53 PM 54.0 °F - 45.0 °F 72% 30.19 in 10.0 mi Calm Calm - N/A   Clear
7:53 PM 50.0 °F - 44.1 °F 80% 30.21 in 10.0 mi Calm Calm - N/A   Clear
8:53 PM 48.9 °F - 44.1 °F 83% 30.21 in 10.0 mi ENE 3.5 mph - N/A   Clear
9:53 PM 48.9 °F - 44.1 °F 83% 30.22 in 10.0 mi ENE 5.8 mph - N/A   Clear
10:53 PM 46.0 °F - 43.0 °F 89% 30.22 in 10.0 mi Calm Calm - N/A   Clear
11:53 PM 45.0 °F - 42.1 °F 90% 30.22 in 10.0 mi Calm Calm - N/A   Clear